Regional Weather Roundup
Issued by NWS

Home | Current Version | Previous Version | Graphics & Text | Print | Product List | Glossary On
Versions: 1 2 3 4 5 6 7 8 9 10 11 12 13 14 15 16 17 18 19 20 21 22 23 24 25 26 27 28 29 30 31 32 33 34 35 36 37 38 39 40 41 42 43 44 45 46 47 48 49 50
000
ASUS43 KDMX 221006
RWRIA

WEATHER ROUNDUP FOR IOWA
NATIONAL WEATHER SERVICE DES MOINES IA
500 AM CDT TUE AUG 22 2017

NOTE: "FAIR" INDICATES FEW OR NO CLOUDS BELOW 12,000 FEET WITH NO
SIGNIFICANT WEATHER AND/OR OBSTRUCTIONS TO VISIBILITY.

* - THESE STATIONS ARE NOT NWS STATIONS...THUS NOT UNDER NWS
QUALITY CONTROL.  THEY ALSO DO NOT REPORT WEATHER SUCH
AS PRECIPITATION OR FOG.

IAZ001>003-012>014-020>022-031>034-043>046-221100-
   NORTHWEST IOWA

CITY           SKY/WX    TMP DP  RH WIND       PRES   REMARKS
CARROLL *      PTCLDY    61  61 100 CALM      30.02R FOG
CHEROKEE *     CLEAR     59  59 100 NW8       30.04R
DENISON *      MOCLDY    63  61  94 CALM      30.06R FOG
LE MARS *      CLEAR    106 N/A N/A VRB6      30.06R
ORANGE CITY *  CLEAR     61  57  88 N9        30.07R
SHELDON *      CLEAR     57  55  94 NW8       30.04R
SIOUX CITY     CLEAR     61  59  93 N12       30.06R
SPENCER        CLEAR     58  55  90 NW9       30.03R
STORM LAKE *   CLEAR     61  59  94 N10       30.03R
$$

IAZ055>058-069>071-079>083-090>094-221100-
   SOUTHWEST IOWA

CITY           SKY/WX    TMP DP  RH WIND       PRES   REMARKS
ATLANTIC *     MOCLDY    64  63  94 CALM      30.03R
AUDUBON *      PTCLDY    63  61  94 NW5       30.04R
CLARINDA *     PTCLDY    63  63 100 CALM      30.07R
COUNCIL BLFS * CLOUDY    64  64 100 NW5       30.05R FOG
CRESTON *      CLOUDY    63  63 100 W7        30.04R
HARLAN  *      MOCLDY    64  64 100 NW5       30.07R
LAMONI         CLOUDY    64  63  96 NW9       30.02R
RED OAK *      CLOUDY    63  63 100 CALM      30.05R FOG
SHENANDOAH *   CLOUDY    63  63 100 CALM      30.06R
$$

IAZ047>049-059>061-072>074-084-221100-
   CENTRAL IOWA

CITY           SKY/WX    TMP DP  RH WIND       PRES   REMARKS
AMES           CLOUDY    64  64 100 W10       29.97S
ANKENY *       CLOUDY    64  63  94 W9        29.99R
BOONE *        PTCLDY    63  63 100 W10       29.98R
CHARITON *     CLOUDY    64  64 100 W8        29.99S
DES MOINES     MOCLDY    65  63  93 W7        29.98R
GRINNELL*      MOCLDY    64  62  93 W8        29.96R
KNOXVILLE *    MOCLDY    64  63  94 W8        29.96S
MARSHALLTOWN   PTCLDY    64  63  96 W7        29.94S
NEWTON *       MOCLDY    64  63  94 W7G13     29.97R
PELLA *        MOCLDY    64  63  95 W8        29.98R
PERRY *          N/A     63  62  97 W7        30.00R
$$

IAZ004>006-015-016-023>025-035-036-221100-
   NORTH CENTRAL IOWA

CITY           SKY/WX    TMP DP  RH WIND       PRES   REMARKS
ALGONA *       CLEAR     61  61 100 NW6       30.00R
CLARION *      CLEAR     61  61 100 NW8       29.98R
ESTHERVILLE    CLEAR     57  55  93 NW9       30.00R
FORT DODGE *   CLEAR     63  57  82 NW5       29.99R
FOREST CITY *    N/A     61  59  94 NW9       29.97R
WEBSTER CITY * CLEAR     61  59  94 NW8       29.97R
IOWA FALLS *     N/A     63  62  96 W8        29.97S
$$

IAZ007>011-017>019-026>030-037>042-050>054-066-221100-
   NORTHEAST IOWA

CITY           SKY/WX    TMP DP  RH WIND       PRES   REMARKS
CEDAR RAPIDS   CLOUDY    64  64 100 W12       29.91R
CHARLES CITY * CLOUDY    63  63 100 W8        29.92S
CLINTON *      CLOUDY    66  65  96 W8        29.91R
DECORAH *      CLOUDY    63  63 100 CALM      29.88S
DUBUQUE        CLOUDY    64  63  96 NW7       29.89F
MONTICELLO *   CLOUDY    64  64 100 W5        29.89S
OELWEIN *      CLOUDY    63  63 100 W9        29.91S
WATERLOO       PTCLDY    63  62  97 W9        29.91S
$$

IAZ064-065-067-068-078-221100-
   EAST CENTRAL IOWA

CITY           SKY/WX    TMP DP  RH WIND       PRES   REMARKS
DAVENPORT      CLOUDY    67  65  93 NW9       29.94R
IOWA CITY      CLOUDY    67  65  93 NW7       29.92R
MT. PLEASANT * CLOUDY    67  66  98 W6        29.94R
MUSCATINE *    CLOUDY    68  66  94 N5        29.91R
QUAD CITIES    CLOUDY    69  65  86 W8        29.91R
$$

IAZ062-063-075>077-085>089-095>099-221100-
   SOUTHEAST IOWA

CITY           SKY/WX    TMP DP  RH WIND       PRES   REMARKS
BURLINGTON     LGT RAIN  68  68 100 SW10      29.88F
FAIRFIELD *    CLOUDY    66  64  94 W9        29.93R
FORT MADISON * LGT RAIN  68  68 100 S9        29.89F
KEOKUK *       CLOUDY    68  66  94 S13G20    29.89F
OSKALOOSA *      N/A     64  63  96 NW12      29.96R
CENTERVILLE *    N/A     64  64 100 CALM      30.00R
OTTUMWA        CLOUDY    67  65  93 NW12      29.95R
WASHINGTON *   CLOUDY    66  66 100 NW8       29.93R
$$

ABBREVIATIONS USED IN REMARKS
   TC - TEMPERATURES IN CELSIUS
  WCI - WIND CHILL INDEX
   HX - HEAT INDEX
  VSB - VISIBILITY
$$




USA.gov is the U.S. government's official web portal to all federal, state and local government web resources and services.